Wind_Speed
15 15 15 16 15 15 14 13 12 12 11 11 11 10 11 11 12 12 14 15 17 17 18 18 18 18 17 15 14 13 12 11 11 11 11 12 15 17 17 17 16 15 13
19 19 18 18 18 18 17 16 15 15 14 14 13 13 13 13 14 15 16 17 18 19 20 21 22 22 22 21 20 18 17 15 15 14 13 14 14 15 19 20 19 18 16
24 23 21 20 20 19 18 18 18 18 17 16 15 15 15 15 16 16 17 18 19 20 21 22 23 25 26 26 25 24 22 21 19 18 17 16 16 16 16 20 22 21 20
25 25 23 22 21 21 21 21 20 20 18 17 16 16 17 17 18 19 19 20 21 22 23 23 24 25 26 28 29 28 27 25 23 22 21 20 18 17 17 17 20 23 23
24 24 24 25 24 24 24 24 23 21 20 19 18 18 19 20 21 21 22 22 23 23 25 26 26 25 26 27 28 29 29 28 26 24 23 22 21 20 19 19 19 21 24
25 24 25 27 27 27 27 26 24 22 21 20 19 19 21 22 22 22 23 24 24 24 25 26 27 26 25 26 26 27 28 28 27 25 23 23 22 21 20 20 20 20 23
28 27 28 30 30 30 29 27 25 24 22 20 20 20 21 22 23 22 23 25 25 24 25 25 26 26 25 24 25 25 26 26 26 25 23 22 22 22 21 20 20 20 21
30 30 31 31 31 30 30 28 26 24 23 21 20 21 21 22 23 22 22 24 24 23 25 24 25 25 24 24 23 24 24 25 25 25 23 22 21 21 20 20 20 20 20
31 31 31 31 31 30 29 29 27 26 23 22 21 21 23 24 24 23 23 24 24 23 24 25 25 24 23 22 23 23 24 24 24 24 24 22 21 20 19 19 20 20 20
33 32 32 32 31 30 30 30 29 27 25 23 22 23 24 24 25 24 25 24 24 24 24 24 25 24 22 21 23 24 24 24 24 24 24 24 23 21 19 19 20 21 21
37 36 37 36 34 32 31 31 30 29 27 25 24 24 24 25 25 24 25 25 24 24 23 23 24 24 22 21 23 24 24 25 24 24 24 24 25 23 21 19 20 22 22
39 40 40 38 36 34 34 33 32 30 28 25 24 24 25 26 26 25 25 26 25 24 23 23 24 24 23 21 22 24 24 24 24 25 24 25 25 25 24 22 22 22 24
40 39 39 37 36 35 34 34 34 31 28 25 25 25 26 27 27 27 26 26 25 24 22 22 24 22 22 20 19 22 23 24 25 25 24 25 25 26 26 25 24 25 25
40 40 39 37 36 35 35 35 34 30 28 25 25 26 27 28 28 28 27 26 25 24 23 22 22 22 21 19 19 20 21 22 23 24 24 23 24 24 24 25 26 27 27
39 38 38 37 37 35 36 35 32 28 26 25 25 26 28 28 28 28 27 26 25 24 24 23 21 20 20 19 19 20 20 22 23 23 23 23 22 23 23 24 25 27 28
37 38 38 37 35 35 35 32 28 25 24 24 26 27 28 29 29 29 28 27 25 23 23 22 20 19 20 20 19 19 20 21 22 23 23 23 23 23 24 25 26 27 28
35 34 31 30 27 27 26 24 22 21 22 24 26 27 28 29 29 29 28 27 25 23 22 21 20 19 20 20 21 20 20 21 21 21 21 22 23 23 24 26 27 29 30
24 21 19 19 19 18 18 19 19 20 22 24 25 26 27 27 28 28 27 27 26 24 22 21 20 19 20 20 20 21 20 21 20 19 19 19 19 20 21 23 24 26 27
11 9 9 10 12 13 15 17 19 21 23 24 25 26 27 27 27 27 27 27 27 25 23 21 21 20 19 20 20 21 21 21 21 19 18 18 18 18 18 19 20 21 24
5 6 8 11 13 14 16 18 20 21 22 23 24 25 26 26 27 27 27 27 27 26 24 22 21 21 20 19 19 19 20 21 22 21 20 19 19 18 19 19 20 21 22
8 10 12 14 15 16 17 18 19 20 22 22 23 24 24 25 26 26 26 27 26 26 24 23 22 21 20 19 17 18 18 19 20 22 22 22 22 22 23 23 24 24 24
12 13 15 16 17 18 19 20 21 21 22 22 23 23 23 23 24 24 25 25 26 26 25 24 23 22 20 19 18 15 16 17 19 22 23 24 25 25 26 26 26 27 27
15 16 18 19 20 20 20 21 22 22 22 22 22 22 22 22 22 22 22 23 24 25 25 25 24 23 21 20 18 16 15 15 16 18 20 22 24 25 27 28 28 29 30
15 17 18 19 20 21 21 22 22 21 21 21 20 20 20 20 20 20 19 19 20 22 24 24 23 23 22 21 18 17 16 15 15 15 17 19 20 21 23 25 26 27 29
16 17 18 19 20 21 21 21 21 20 20 20 19 18 18 18 18 18 17 16 15 17 18 21 22 22 21 21 20 19 18 17 17 17 17 18 20 21 23 24 25 27 28
17 17 18 19 19 19 20 20 19 19 19 19 19 18 18 18 17 17 16 15 14 14 14 16 18 19 19 18 18 18 18 18 18 19 19 20 22 23 24 25 26 27 29
Wind_Direction
262 263 261 263 264 266 268 274 282 287 288 291 296 302 305 304 299 289 281 276 273 270 269 270 270 269 265 261 261 262 263 265 263 258 255 250 244 240 237 235 236 238 242
266 268 267 264 264 264 267 273 279 284 284 285 288 292 297 299 296 290 284 279 276 275 272 270 269 270 269 266 264 263 263 264 265 263 260 256 253 249 243 238 237 238 240
270 271 270 266 264 263 266 273 279 284 285 284 284 287 292 295 293 290 286 283 281 280 279 276 271 269 268 267 266 266 265 265 265 265 263 260 256 253 251 244 238 237 238
273 273 272 267 264 263 265 272 278 281 282 280 278 282 288 291 290 288 286 284 283 284 284 282 279 274 269 267 267 267 266 265 264 263 263 261 258 255 254 252 244 238 236
276 274 272 268 264 264 268 273 276 278 279 276 275 279 285 288 288 287 285 283 283 285 286 286 284 280 275 270 267 266 266 264 263 261 261 260 257 256 254 253 254 247 239
276 274 272 270 266 265 268 271 274 275 275 274 274 278 283 285 285 286 286 285 284 285 285 285 284 280 277 272 268 265 264 262 260 259 257 256 254 254 255 254 255 255 246
273 274 274 273 272 265 264 269 271 272 270 271 274 277 280 281 282 284 286 287 288 288 287 285 282 281 278 273 268 265 261 259 256 254 255 255 253 253 254 255 255 256 253
272 274 275 276 278 270 263 263 266 268 267 268 271 275 277 279 282 285 285 287 289 289 287 285 282 281 277 272 267 263 258 255 252 250 251 253 253 252 253 254 255 255 254
273 275 278 280 282 276 265 260 262 264 264 265 268 270 273 276 280 283 286 286 287 287 286 285 283 281 277 270 265 260 255 251 248 247 248 251 251 252 253 254 253 253 253
276 281 281 282 285 282 271 261 259 259 258 262 265 267 269 274 278 281 284 285 286 287 286 284 283 281 277 269 264 259 254 249 246 244 245 247 248 249 251 251 249 248 249
276 281 283 282 281 281 273 265 257 254 253 258 263 267 271 275 279 283 284 285 285 285 286 285 282 282 279 269 263 259 253 248 245 243 243 244 245 246 248 249 249 247 246
278 282 283 283 280 281 275 264 256 250 251 255 261 267 272 276 279 282 283 284 285 284 285 283 282 282 280 275 264 257 251 248 246 243 242 243 244 245 247 249 250 249 247
278 283 283 283 281 279 273 261 254 249 250 255 262 268 272 275 278 280 282 282 283 283 284 282 281 280 278 277 265 257 251 247 246 244 242 243 245 246 248 252 253 253 251
278 283 283 284 282 276 266 257 250 248 251 256 263 269 273 276 277 278 280 281 281 282 284 283 280 277 275 276 267 258 250 247 246 245 243 244 247 249 251 256 258 257 255
279 281 282 280 277 269 259 250 245 245 250 257 265 271 274 275 277 277 279 279 279 281 283 283 278 273 270 272 269 261 254 249 248 246 244 245 248 251 255 260 262 261 258
275 277 277 274 269 261 252 243 239 244 254 262 269 273 275 276 277 277 277 276 276 278 280 281 279 273 268 267 268 263 257 252 248 246 245 245 249 253 257 262 263 263 260
267 267 265 260 253 248 242 239 241 248 258 266 271 273 274 275 275 275 274 273 273 273 275 277 278 276 270 265 264 263 259 255 250 248 247 248 251 254 258 262 264 263 261
261 257 251 244 237 237 243 246 253 259 264 268 270 271 272 272 273 273 271 270 269 269 269 271 274 276 273 269 263 261 260 254 250 247 246 248 252 254 258 262 264 265 263
241 235 244 248 248 252 257 262 266 268 269 270 272 272 270 270 270 270 269 268 267 265 265 266 269 273 273 272 266 260 257 252 248 243 242 245 251 254 256 261 265 268 267
272 273 274 275 274 272 270 268 269 270 270 271 271 271 269 268 267 266 266 266 265 264 262 262 265 269 273 273 268 261 256 252 246 241 243 247 250 256 260 264 267 270 271
304 295 288 284 281 278 275 273 271 270 270 270 270 269 268 267 266 265 264 264 264 263 261 260 262 266 269 269 266 262 257 255 248 244 245 248 253 258 263 266 269 271 271
302 296 292 288 285 281 280 279 277 275 273 271 270 269 267 266 265 265 265 264 262 261 260 258 259 262 265 267 267 269 264 257 254 252 252 253 256 261 265 267 269 269 269
305 300 296 293 291 289 288 285 283 280 277 273 270 269 267 267 267 266 266 265 262 260 258 255 255 256 259 262 265 268 269 268 264 259 258 259 261 262 265 268 268 268 268
309 303 298 294 291 288 287 285 283 280 276 273 271 269 266 265 265 265 266 267 265 260 257 254 252 252 254 258 262 265 269 273 272 274 271 269 270 270 269 269 270 270 270
315 308 303 298 293 289 286 284 281 278 275 271 268 264 261 259 260 262 262 263 263 260 257 255 252 251 252 255 258 261 263 266 268 272 275 274 273 273 273 273 271 272 272
326 317 308 301 295 290 286 282 279 276 273 270 266 261 260 258 256 258 260 260 259 261 261 259 257 254 252 253 257 259 262 265 268 271 273 275 277 278 278 277 275 275 274
Height
5905 5905 5905 5905 5905 5905 5904 5904 5904 5903 5903 5902 5901 5900 5899 5898 5898 5897 5897 5898 5898 5899 5899 5900 5901 5901 5902 5902 5902 5902 5903 5904 5904 5904 5905 5906 5908 5909 5911 5913 5915 5916 5917
5902 5902 5902 5902 5901 5901 5901 5901 5901 5901 5900 5899 5899 5898 5897 5896 5895 5895 5895 5895 5895 5895 5896 5896 5897 5898 5899 5900 5900 5900 5901 5901 5902 5902 5902 5903 5905 5906 5908 5909 5911 5913 5915
5898 5898 5898 5898 5897 5897 5898 5898 5898 5897 5897 5897 5896 5895 5895 5894 5893 5892 5892 5891 5891 5891 5891 5892 5893 5893 5894 5895 5896 5897 5897 5898 5898 5899 5900 5900 5901 5902 5904 5905 5907 5909 5911
5893 5893 5894 5894 5893 5893 5893 5893 5894 5894 5893 5893 5892 5892 5891 5890 5889 5888 5888 5888 5888 5887 5887 5887 5887 5888 5889 5889 5891 5892 5893 5894 5894 5895 5896 5897 5898 5899 5900 5901 5903 5905 5907
5888 5889 5889 5889 5889 5889 5889 5888 5889 5889 5889 5888 5888 5888 5887 5886 5885 5884 5884 5883 5883 5883 5882 5882 5882 5882 5882 5883 5884 5885 5887 5888 5889 5890 5891 5893 5894 5895 5896 5898 5899 5901 5903
5882 5883 5883 5883 5883 5883 5883 5883 5884 5884 5884 5883 5884 5883 5883 5882 5880 5880 5879 5878 5878 5878 5877 5876 5875 5875 5876 5876 5877 5878 5880 5882 5883 5885 5886 5888 5889 5890 5892 5893 5895 5896 5898
5876 5877 5877 5876 5876 5877 5877 5878 5878 5878 5878 5878 5878 5878 5878 5877 5875 5875 5874 5872 5872 5872 5871 5870 5870 5869 5869 5870 5870 5872 5873 5876 5878 5879 5881 5882 5884 5885 5887 5889 5890 5892 5893
5869 5870 5870 5869 5869 5869 5870 5871 5872 5872 5873 5873 5873 5872 5872 5872 5870 5870 5869 5867 5866 5866 5865 5864 5864 5864 5863 5863 5864 5866 5867 5869 5872 5874 5876 5878 5879 5880 5882 5884 5886 5887 5889
5861 5862 5862 5862 5862 5861 5862 5863 5865 5866 5867 5867 5867 5867 5866 5866 5865 5864 5863 5862 5861 5861 5860 5858 5858 5858 5858 5858 5858 5860 5861 5863 5866 5868 5871 5873 5874 5876 5877 5879 5881 5883 5885
5853 5854 5854 5854 5854 5854 5854 5855 5857 5858 5860 5860 5860 5860 5860 5860 5859 5858 5857 5856 5856 5855 5854 5853 5852 5852 5853 5853 5853 5854 5856 5857 5860 5863 5865 5868 5869 5871 5873 5874 5876 5878 5880
5843 5845 5846 5847 5846 5846 5847 5848 5849 5850 5852 5853 5853 5853 5853 5853 5852 5851 5850 5850 5850 5849 5849 5848 5847 5846 5847 5847 5847 5848 5850 5852 5854 5857 5859 5862 5864 5866 5868 5870 5871 5873 5875
5834 5836 5838 5838 5838 5838 5839 5840 5841 5842 5844 5845 5846 5846 5846 5846 5845 5844 5844 5843 5843 5843 5843 5842 5842 5841 5841 5841 5842 5842 5844 5846 5849 5851 5854 5856 5858 5860 5862 5864 5866 5868 5870
5826 5828 5829 5830 5830 5830 5831 5832 5833 5834 5836 5837 5838 5839 5839 5839 5838 5838 5837 5836 5836 5837 5837 5837 5836 5836 5836 5836 5836 5836 5838 5841 5843 5845 5848 5850 5852 5854 5857 5859 5860 5862 5864
5818 5820 5821 5821 5821 5821 5822 5823 5824 5826 5828 5830 5831 5831 5832 5832 5832 5831 5831 5831 5830 5831 5831 5831 5831 5831 5831 5831 5831 5832 5833 5836 5838 5840 5842 5844 5847 5849 5851 5853 5855 5856 5858
5810 5811 5811 5811 5811 5812 5813 5814 5816 5818 5820 5822 5823 5824 5825 5824 5824 5824 5824 5825 5825 5825 5825 5824 5825 5826 5826 5826 5827 5828 5829 5831 5833 5835 5837 5839 5841 5843 5845 5847 5849 5850 5851
5802 5802 5802 5802 5802 5803 5805 5806 5808 5810 5812 5814 5815 5816 5817 5817 5817 5817 5818 5818 5819 5819 5819 5819 5820 5821 5821 5821 5822 5823 5824 5825 5827 5829 5831 5834 5836 5837 5839 5841 5842 5843 5845
5793 5793 5793 5794 5795 5796 5797 5799 5801 5803 5805 5807 5808 5809 5809 5810 5810 5811 5811 5812 5813 5813 5813 5813 5815 5816 5816 5817 5817 5818 5819 5820 5822 5824 5826 5828 5830 5831 5833 5834 5835 5836 5837
5786 5787 5787 5789 5790 5792 5793 5794 5795 5797 5799 5800 5801 5802 5803 5803 5804 5804 5805 5806 5807 5807 5808 5808 5810 5810 5810 5811 5812 5813 5814 5815 5817 5818 5820 5822 5823 5825 5826 5827 5828 5829 5830
5783 5783 5784 5785 5786 5787 5789 5790 5791 5792 5793 5793 5794 5795 5796 5797 5798 5798 5799 5800 5801 5801 5802 5803 5804 5805 5805 5806 5806 5807 5808 5810 5811 5813 5814 5816 5817 5819 5820 5821 5822 5822 5823
5781 5782 5782 5782 5783 5784 5785 5785 5786 5787 5787 5787 5788 5788 5789 5790 5791 5791 5792 5793 5794 5795 5796 5798 5799 5799 5800 5800 5801 5801 5802 5804 5805 5807 5809 5810 5812 5814 5815 5816 5816 5817 5818
5780 5780 5780 5780 5780 5780 5780 5780 5780 5780 5780 5781 5781 5782 5782 5783 5783 5784 5785 5786 5788 5789 5791 5792 5793 5794 5795 5795 5795 5796 5797 5798 5799 5801 5803 5805 5807 5808 5809 5810 5810 5811 5812
5778 5778 5777 5776 5775 5775 5774 5774 5773 5773 5774 5774 5775 5775 5776 5776 5776 5777 5778 5779 5781 5782 5784 5786 5788 5789 5789 5790 5790 5791 5791 5792 5794 5796 5797 5799 5800 5801 5802 5803 5804 5804 5805
5775 5774 5772 5771 5770 5769 5768 5767 5767 5766 5767 5767 5768 5769 5769 5769 5769 5770 5771 5772 5774 5775 5777 5779 5781 5783 5784 5785 5786 5787 5787 5788 5789 5790 5791 5792 5793 5795 5795 5796 5796 5796 5796
5772 5770 5768 5766 5764 5763 5761 5761 5760 5760 5760 5760 5761 5762 5763 5763 5763 5764 5765 5766 5767 5768 5770 5772 5774 5776 5778 5779 5780 5782 5782 5783 5784 5785 5785 5786 5787 5787 5788 5788 5788 5788 5788
5769 5766 5763 5760 5758 5756 5755 5754 5753 5753 5753 5753 5754 5755 5756 5757 5757 5758 5759 5760 5761 5762 5763 5765 5767 5769 5771 5773 5775 5776 5777 5778 5779 5779 5780 5781 5781 5781 5781 5781 5781 5780 5779
5765 5761 5758 5755 5752 5750 5748 5747 5747 5746 5746 5747 5747 5749 5749 5750 5750 5751 5753 5755 5756 5757 5758 5760 5762 5763 5765 5767 5769 5771 5772 5773 5773 5774 5774 5774 5774 5774 5773 5773 5772 5771 5770